SAS926 KIAD-EKCH

Flight info

Callsign SAS926
Flight time N/A
Altitude 39000
Route JCOBY4 SWANN DCT BROSS Q419 RBV Q22 FOXWD DCT WITCH DCT TOPPS DCT JANJO/M084F400 NATT KESIX/N0490F410 DCT IBROD DCT ELSAN DCT VAXIT N581 EVAKI T55 TESPI
Aircraft A359/H-SDE2E3GHIJ3J4J5LM1ORWXY/LB1D1

Departure

Time 2026-05-06 21:57
Airport Washington Dulles International Airport (KIAD)

Arrival

Time N/A
Airport Copenhagen Kastrup Airport (EKCH)
Time Latitude Longitude Altitude Speed Heading
2026-05-06 21:18 38.94948 -77.45025 305 ft 0 kts 182°
2026-05-06 21:44 38.94953 -77.45025 307 ft 4 kts 182°
2026-05-06 21:44 38.94979 -77.45022 304 ft 4 kts 185°
2026-05-06 21:44 38.95003 -77.45020 304 ft 4 kts 176°
2026-05-06 21:45 38.95023 -77.45025 305 ft 4 kts 137°
2026-05-06 21:45 38.95031 -77.45039 304 ft 4 kts 90°
2026-05-06 21:45 38.95029 -77.45073 305 ft 4 kts 79°
2026-05-06 21:45 38.95024 -77.45106 303 ft 4 kts 88°
2026-05-06 21:46 38.95024 -77.45114 303 ft 0 kts 91°
2026-05-06 21:50 38.95023 -77.45084 303 ft 0 kts 94°
2026-05-06 21:50 38.95023 -77.45081 303 ft 3 kts 93°
2026-05-06 21:51 38.95021 -77.44967 306 ft 18 kts 90°
2026-05-06 21:51 38.95021 -77.44803 305 ft 19 kts 90°
2026-05-06 21:51 38.95020 -77.44631 306 ft 20 kts 90°
2026-05-06 21:51 38.95020 -77.44454 307 ft 20 kts 90°
2026-05-06 21:52 38.95025 -77.44278 309 ft 19 kts 89°
2026-05-06 21:52 38.95025 -77.44099 308 ft 21 kts 93°
2026-05-06 21:52 38.95013 -77.43920 308 ft 17 kts 84°
2026-05-06 21:52 38.95062 -77.43857 309 ft 10 kts 13°
2026-05-06 21:53 38.95186 -77.43850 310 ft 20 kts
2026-05-06 21:53 38.95321 -77.43848 312 ft 19 kts
2026-05-06 21:53 38.95442 -77.43841 313 ft 11 kts 13°
2026-05-06 21:53 38.95483 -77.43763 310 ft 11 kts 82°
2026-05-06 21:54 38.95484 -77.43743 310 ft 0 kts 88°
2026-05-06 21:54 38.95486 -77.43679 310 ft 16 kts 88°
2026-05-06 21:54 38.95479 -77.43616 311 ft 7 kts 124°
2026-05-06 21:54 38.95424 -77.43601 310 ft 0 kts 180°
2026-05-06 21:56 38.95408 -77.43601 310 ft 13 kts 180°
2026-05-06 21:56 38.95111 -77.43600 312 ft 75 kts 181°
2026-05-06 21:56 38.94388 -77.43616 317 ft 131 kts 181°
2026-05-06 21:56 38.93350 -77.43613 599 ft 154 kts 182°
2026-05-06 21:57 38.92282 -77.43616 1240 ft 154 kts 185°
2026-05-06 21:57 38.91375 -77.44243 1691 ft 159 kts 235°
2026-05-06 21:57 38.91212 -77.45740 1731 ft 193 kts 285°
2026-05-06 21:57 38.92082 -77.47228 1885 ft 226 kts 313°
2026-05-06 21:58 38.93264 -77.48710 2271 ft 245 kts 310°
2026-05-06 21:58 38.94405 -77.50397 2765 ft 254 kts 306°
2026-05-06 21:58 38.95514 -77.52168 2975 ft 255 kts 305°
2026-05-06 21:58 38.96626 -77.53939 3002 ft 254 kts 306°
2026-05-06 21:59 38.97753 -77.55688 3007 ft 254 kts 309°
2026-05-06 21:59 38.99077 -77.57193 3017 ft 255 kts 325°
2026-05-06 21:59 39.00728 -77.58066 3023 ft 262 kts 348°
2026-05-06 21:59 39.02562 -77.57928 3211 ft 272 kts 17°
2026-05-06 22:00 39.04160 -77.56574 3815 ft 283 kts 50°
2026-05-06 22:00 39.05238 -77.54431 4565 ft 289 kts 62°
2026-05-06 22:00 39.06202 -77.52127 5343 ft 296 kts 62°
2026-05-06 22:00 39.07198 -77.49781 6174 ft 301 kts 61°
2026-05-06 22:01 39.08235 -77.47404 6877 ft 307 kts 60°
2026-05-06 22:01 39.09293 -77.45021 7560 ft 314 kts 60°
2026-05-06 22:01 39.10392 -77.42564 8301 ft 319 kts 60°
2026-05-06 22:01 39.11521 -77.40047 9078 ft 324 kts 60°
2026-05-06 22:02 39.12644 -77.37548 9825 ft 329 kts 59°
2026-05-06 22:02 39.13810 -77.34949 10313 ft 344 kts 59°
2026-05-06 22:02 39.14966 -77.32141 10633 ft 365 kts 68°
2026-05-06 22:02 39.15448 -77.28868 10986 ft 381 kts 96°
2026-05-06 22:03 39.15024 -77.25454 11321 ft 394 kts 107°
2026-05-06 22:03 39.14374 -77.21950 11627 ft 409 kts 108°
2026-05-06 22:03 39.13713 -77.18335 12155 ft 417 kts 107°
2026-05-06 22:03 39.13072 -77.14664 12776 ft 423 kts 105°
2026-05-06 22:04 39.12465 -77.10933 13465 ft 428 kts 105°
2026-05-06 22:04 39.11861 -77.07151 14022 ft 434 kts 105°
2026-05-06 22:04 39.11258 -77.03369 14534 ft 438 kts 105°
2026-05-06 22:04 39.10693 -76.99432 15060 ft 446 kts 99°
2026-05-06 22:05 39.10597 -76.95434 15595 ft 450 kts 90°
2026-05-06 22:05 39.10703 -76.91437 16198 ft 453 kts 89°
2026-05-06 22:05 39.10824 -76.87360 16715 ft 459 kts 89°
2026-05-06 22:05 39.10939 -76.83234 17254 ft 464 kts 89°
2026-05-06 22:06 39.11049 -76.79065 17811 ft 468 kts 89°
2026-05-06 22:06 39.11156 -76.74858 18371 ft 472 kts 89°
2026-05-06 22:06 39.11261 -76.70601 18859 ft 478 kts 89°
2026-05-06 22:06 39.11365 -76.66306 19308 ft 483 kts 89°
2026-05-06 22:07 39.11467 -76.61955 19813 ft 488 kts 89°
2026-05-06 22:07 39.11568 -76.57561 20290 ft 493 kts 89°
2026-05-06 22:07 39.11690 -76.53131 20723 ft 498 kts 87°
2026-05-06 22:07 39.12070 -76.48681 21188 ft 502 kts 82°
2026-05-06 22:08 39.12574 -76.44218 21662 ft 506 kts 82°
2026-05-06 22:08 39.13094 -76.39705 22130 ft 511 kts 82°
2026-05-06 22:08 39.13613 -76.35160 22587 ft 516 kts 82°
2026-05-06 22:08 39.14134 -76.30551 23063 ft 521 kts 82°
2026-05-06 22:09 39.14655 -76.25911 23513 ft 526 kts 82°
2026-05-06 22:09 39.15179 -76.21227 23935 ft 530 kts 82°
2026-05-06 22:09 39.15693 -76.16516 24384 ft 533 kts 82°
2026-05-06 22:09 39.16203 -76.11772 24820 ft 536 kts 82°
2026-05-06 22:10 39.16723 -76.06994 25265 ft 539 kts 82°
2026-05-06 22:10 39.17252 -76.02202 25732 ft 542 kts 82°
2026-05-06 22:10 39.17812 -75.97381 26132 ft 546 kts 79°
2026-05-06 22:10 39.18770 -75.92650 26507 ft 546 kts 68°
2026-05-06 22:11 39.20344 -75.88223 26944 ft 541 kts 56°
2026-05-06 22:11 39.22512 -75.84302 27380 ft 534 kts 43°
2026-05-06 22:11 39.25134 -75.80935 27839 ft 530 kts 37°
2026-05-06 22:11 39.27887 -75.77781 28235 ft 531 kts 34°
2026-05-06 22:12 39.30714 -75.74698 28642 ft 533 kts 33°
2026-05-06 22:12 39.33540 -75.71672 29046 ft 536 kts 33°
2026-05-06 22:12 39.36418 -75.68590 29429 ft 539 kts 33°
2026-05-06 22:12 39.39309 -75.65472 29776 ft 543 kts 33°
2026-05-06 22:13 39.42209 -75.62319 30110 ft 546 kts 34°
2026-05-06 22:13 39.45116 -75.59137 30428 ft 549 kts 34°
2026-05-06 22:13 39.48027 -75.55935 30724 ft 552 kts 34°
2026-05-06 22:13 39.50954 -75.52704 31018 ft 554 kts 33°
2026-05-06 22:14 39.53891 -75.49457 31314 ft 556 kts 33°
2026-05-06 22:14 39.56830 -75.46202 31693 ft 556 kts 33°
2026-05-06 22:14 39.59772 -75.42939 32138 ft 554 kts 33°
2026-05-06 22:14 39.62699 -75.39688 32561 ft 553 kts 33°
2026-05-06 22:15 39.65616 -75.36446 33004 ft 551 kts 33°
2026-05-06 22:15 39.68520 -75.33215 33441 ft 549 kts 33°
2026-05-06 22:15 39.71418 -75.29986 33824 ft 548 kts 32°
2026-05-06 22:15 39.74311 -75.26760 34158 ft 547 kts 32°
2026-05-06 22:16 39.77201 -75.23527 34487 ft 548 kts 33°
2026-05-06 22:16 39.79923 -75.20014 34839 ft 554 kts 40°
2026-05-06 22:16 39.82535 -75.16299 35060 ft 557 kts 41°
2026-05-06 22:16 39.85111 -75.12524 35332 ft 558 kts 42°
2026-05-06 22:17 39.87667 -75.08715 35649 ft 557 kts 42°
2026-05-06 22:17 39.90167 -75.04962 35967 ft 555 kts 42°
2026-05-06 22:17 39.92690 -75.01173 36230 ft 555 kts 42°
2026-05-06 22:17 39.95226 -74.97365 36480 ft 556 kts 42°
2026-05-06 22:18 39.97578 -74.93327 36784 ft 561 kts 49°
2026-05-06 22:18 39.99805 -74.89139 37028 ft 562 kts 50°
2026-05-06 22:18 40.01994 -74.84908 37274 ft 562 kts 51°
2026-05-06 22:18 40.04157 -74.80663 37506 ft 562 kts 51°
2026-05-06 22:19 40.06307 -74.76419 37756 ft 561 kts 51°
2026-05-06 22:19 40.08453 -74.72169 38051 ft 559 kts 51°
2026-05-06 22:19 40.10603 -74.67918 38291 ft 559 kts 51°
2026-05-06 22:19 40.12743 -74.63687 38485 ft 559 kts 51°
2026-05-06 22:20 40.14890 -74.59445 38688 ft 558 kts 51°
2026-05-06 22:20 40.17027 -74.55220 38829 ft 558 kts 51°
2026-05-06 22:20 40.21892 -74.47500 38845 ft 542 kts 34°
2026-05-06 22:21 40.27568 -74.41108 38846 ft 536 kts 32°
2026-05-06 22:21 40.33339 -74.34959 38854 ft 534 kts 32°
2026-05-06 22:22 40.39075 -74.28874 38838 ft 533 kts 32°
2026-05-06 22:22 40.44825 -74.22721 38840 ft 533 kts 32°
2026-05-06 22:23 40.50563 -74.16544 38842 ft 532 kts 33°
2026-05-06 22:23 40.55503 -74.11211 38839 ft 532 kts 33°
2026-05-06 22:24 40.61219 -74.05029 38843 ft 531 kts 33°
2026-05-06 22:24 40.66886 -73.98884 38842 ft 531 kts 33°
2026-05-06 22:25 40.72584 -73.92698 38841 ft 530 kts 33°
2026-05-06 22:25 40.78272 -73.86506 38825 ft 530 kts 33°
2026-05-06 22:26 40.83938 -73.80284 38827 ft 532 kts 36°
2026-05-06 22:26 40.88051 -73.74215 38823 ft 541 kts 48°
2026-05-06 22:27 40.92423 -73.66238 38824 ft 545 kts 51°
2026-05-06 22:27 40.96748 -73.57984 38826 ft 546 kts 51°
2026-05-06 22:28 41.01073 -73.49721 38825 ft 545 kts 51°
2026-05-06 22:28 41.05397 -73.41488 38826 ft 544 kts 51°
2026-05-06 22:29 41.09723 -73.33258 38832 ft 544 kts 51°
2026-05-06 22:29 41.14018 -73.25074 38838 ft 543 kts 51°
2026-05-06 22:30 41.18330 -73.16835 38831 ft 543 kts 52°
2026-05-06 22:30 41.22631 -73.08592 38833 ft 543 kts 52°
2026-05-06 22:31 41.26927 -73.00337 38832 ft 542 kts 52°
2026-05-06 22:31 41.31142 -72.92004 38835 ft 543 kts 55°
2026-05-06 22:32 41.34983 -72.83333 38831 ft 543 kts 58°
2026-05-06 22:32 41.38754 -72.74624 38824 ft 543 kts 57°
2026-05-06 22:33 41.42578 -72.65948 38841 ft 542 kts 57°
2026-05-06 22:33 41.46416 -72.57320 38842 ft 541 kts 57°
2026-05-06 22:34 41.50252 -72.48694 38839 ft 540 kts 57°
2026-05-06 22:34 41.54077 -72.40065 38840 ft 539 kts 57°
2026-05-06 22:35 41.57885 -72.31443 38832 ft 538 kts 57°
2026-05-06 22:35 41.61598 -72.23008 38828 ft 538 kts 58°
2026-05-06 22:36 41.65382 -72.14388 38825 ft 537 kts 58°
2026-05-06 22:36 41.69132 -72.05822 38824 ft 537 kts 58°
2026-05-06 22:37 41.72899 -71.97192 38828 ft 536 kts 58°
2026-05-06 22:37 41.76653 -71.88567 38834 ft 536 kts 58°
2026-05-06 22:38 41.80796 -71.80329 38848 ft 530 kts 45°
2026-05-06 22:38 41.86240 -71.73831 38852 ft 521 kts 35°
2026-05-06 22:39 41.91950 -71.67871 38848 ft 519 kts 34°
2026-05-06 22:39 41.97699 -71.61971 38847 ft 519 kts 34°
2026-05-06 22:40 42.03380 -71.56096 38836 ft 519 kts 34°
2026-05-06 22:40 42.09091 -71.50146 38837 ft 519 kts 34°
2026-05-06 22:41 42.17616 -71.41224 38829 ft 519 kts 34°
2026-05-06 22:42 42.23315 -71.35241 38826 ft 519 kts 35°
2026-05-06 22:42 42.29010 -71.29248 38830 ft 519 kts 34°
2026-05-06 22:43 42.34697 -71.23252 38805 ft 519 kts 35°
2026-05-06 22:43 42.40383 -71.17240 38798 ft 519 kts 35°
2026-05-06 22:44 42.46024 -71.11262 38820 ft 519 kts 35°
2026-05-06 22:44 42.51566 -71.05373 38808 ft 519 kts 35°
2026-05-06 22:45 42.57245 -70.99327 38806 ft 519 kts 35°
2026-05-06 22:45 42.62923 -70.93267 38806 ft 519 kts 35°
2026-05-06 22:46 42.68602 -70.87194 38806 ft 519 kts 36°
2026-05-06 22:46 42.74219 -70.81013 38810 ft 520 kts 37°
2026-05-06 22:47 42.79796 -70.74721 38813 ft 521 kts 37°
2026-05-06 22:47 42.85376 -70.68431 38804 ft 520 kts 37°
2026-05-06 22:48 42.90963 -70.62148 38804 ft 521 kts 37°
2026-05-06 22:48 42.96557 -70.55855 38802 ft 521 kts 37°
2026-05-06 22:49 43.02151 -70.49547 38807 ft 521 kts 37°
2026-05-06 22:49 43.07740 -70.43228 38806 ft 522 kts 37°
2026-05-06 22:50 43.13295 -70.36930 38815 ft 522 kts 38°
2026-05-06 22:50 43.18884 -70.30578 38819 ft 522 kts 38°
2026-05-06 22:51 43.24473 -70.24211 38807 ft 522 kts 38°
2026-05-06 22:51 43.30058 -70.17833 38810 ft 522 kts 38°
2026-05-06 22:52 43.35639 -70.11444 38810 ft 523 kts 38°
2026-05-06 22:52 43.41226 -70.05031 38811 ft 523 kts 38°
2026-05-06 22:53 43.46806 -69.98610 38816 ft 523 kts 38°
2026-05-06 22:53 43.52299 -69.92274 38814 ft 523 kts 38°
2026-05-06 22:54 43.57874 -69.85827 38826 ft 523 kts 39°
2026-05-06 22:54 43.63458 -69.79354 38822 ft 523 kts 39°
2026-05-06 22:55 43.68995 -69.72919 38821 ft 523 kts 39°
2026-05-06 22:55 43.74560 -69.66434 38827 ft 523 kts 39°
2026-05-06 22:56 43.80126 -69.59933 38827 ft 523 kts 39°
2026-05-06 22:56 43.85691 -69.53416 38827 ft 523 kts 39°
2026-05-06 22:57 43.91247 -69.46892 38832 ft 523 kts 39°
2026-05-06 22:57 43.96803 -69.40354 38830 ft 523 kts 39°
2026-05-06 22:58 44.02353 -69.33804 38849 ft 524 kts 39°
2026-05-06 22:58 44.07894 -69.27251 38847 ft 523 kts 39°
2026-05-06 22:59 44.13440 -69.20674 38848 ft 524 kts 39°
2026-05-06 22:59 44.18982 -69.14083 38838 ft 524 kts 39°
2026-05-06 23:00 44.24484 -69.07525 38846 ft 524 kts 39°
2026-05-06 23:00 44.30018 -69.00910 38838 ft 523 kts 40°
2026-05-06 23:01 44.35544 -68.94290 38844 ft 524 kts 40°
2026-05-06 23:01 44.41054 -68.87671 38843 ft 524 kts 40°
2026-05-06 23:02 44.46575 -68.81022 38843 ft 524 kts 40°
2026-05-06 23:02 44.52096 -68.74355 38837 ft 524 kts 40°
2026-05-06 23:03 44.57619 -68.67668 38826 ft 524 kts 40°
2026-05-06 23:03 44.63139 -68.60968 38815 ft 524 kts 40°
2026-05-06 23:04 44.68661 -68.54249 38816 ft 525 kts 40°
2026-05-06 23:04 44.74182 -68.47512 38819 ft 525 kts 40°
2026-05-06 23:05 44.79610 -68.40873 38827 ft 526 kts 40°
2026-05-06 23:05 44.85084 -68.34160 38837 ft 527 kts 40°
2026-05-06 23:06 44.90606 -68.27369 38837 ft 527 kts 40°
2026-05-06 23:06 44.96129 -68.20558 38838 ft 527 kts 40°
2026-05-06 23:07 45.01655 -68.13727 38833 ft 528 kts 40°
2026-05-06 23:07 45.07177 -68.06883 38838 ft 528 kts 40°
2026-05-06 23:08 45.12696 -68.00022 38835 ft 528 kts 40°
2026-05-06 23:08 45.18223 -67.93134 38835 ft 529 kts 40°
2026-05-06 23:09 45.23750 -67.86228 38835 ft 530 kts 40°
2026-05-06 23:09 45.29277 -67.79302 38838 ft 530 kts 40°
2026-05-06 23:10 45.34935 -67.72588 38845 ft 529 kts 34°
2026-05-06 23:10 45.40946 -67.66528 38838 ft 529 kts 33°
2026-05-06 23:11 45.46989 -67.60572 38831 ft 529 kts 33°
2026-05-06 23:11 45.52904 -67.54744 38832 ft 529 kts 33°
2026-05-06 23:12 45.58957 -67.48750 38835 ft 529 kts 33°
2026-05-06 23:12 45.64998 -67.42741 38833 ft 530 kts 33°
2026-05-06 23:13 45.71047 -67.36705 38836 ft 530 kts 33°
2026-05-06 23:13 45.77052 -67.30700 38836 ft 530 kts 33°
2026-05-06 23:14 45.83100 -67.24633 38833 ft 531 kts 33°
2026-05-06 23:14 45.89152 -67.18548 38837 ft 532 kts 33°
2026-05-06 23:15 45.95208 -67.12442 38835 ft 532 kts 33°
2026-05-06 23:15 46.01271 -67.06312 38834 ft 533 kts 33°
2026-05-06 23:16 46.07336 -67.00162 38837 ft 533 kts 33°
2026-05-06 23:16 46.13405 -66.93991 38836 ft 533 kts 34°
2026-05-06 23:17 46.18439 -66.88861 38832 ft 534 kts 34°
2026-05-06 23:17 46.24504 -66.82663 38837 ft 534 kts 34°
2026-05-06 23:18 46.30562 -66.76456 38834 ft 534 kts 34°
2026-05-06 23:18 46.36622 -66.70231 38836 ft 534 kts 34°
2026-05-06 23:19 46.42680 -66.63990 38835 ft 534 kts 34°
2026-05-06 23:19 46.48736 -66.57734 38832 ft 535 kts 34°
2026-05-06 23:20 46.54787 -66.51464 38832 ft 534 kts 34°
2026-05-06 23:20 46.60841 -66.45175 38735 ft 535 kts 34°
2026-05-06 23:21 46.66920 -66.38866 38832 ft 540 kts 36°
2026-05-06 23:21 46.73075 -66.32441 38841 ft 549 kts 36°
2026-05-06 23:22 46.79320 -66.25885 38842 ft 557 kts 36°
2026-05-06 23:22 46.85607 -66.19263 38838 ft 557 kts 36°
2026-05-06 23:23 46.91889 -66.12637 38845 ft 557 kts 36°
2026-05-06 23:23 46.98172 -66.05995 38842 ft 557 kts 36°
2026-05-06 23:24 47.04448 -65.99341 38846 ft 557 kts 36°
2026-05-06 23:24 47.10732 -65.92659 38847 ft 558 kts 36°
2026-05-06 23:25 47.17010 -65.85962 38847 ft 558 kts 36°
2026-05-06 23:25 47.23246 -65.79291 38849 ft 558 kts 36°
2026-05-06 23:26 47.29527 -65.72552 38845 ft 559 kts 36°
2026-05-06 23:26 47.35804 -65.65796 38844 ft 559 kts 36°
2026-05-06 23:27 47.42082 -65.59019 38844 ft 559 kts 36°
2026-05-06 23:27 47.48366 -65.52214 38841 ft 560 kts 36°
2026-05-06 23:28 47.54647 -65.45394 38840 ft 560 kts 36°
2026-05-06 23:28 47.60922 -65.38557 38839 ft 560 kts 36°
2026-05-06 23:29 47.67205 -65.31692 38846 ft 561 kts 36°
2026-05-06 23:29 47.73485 -65.24808 38841 ft 561 kts 36°
2026-05-06 23:30 47.79761 -65.17909 38841 ft 561 kts 36°
2026-05-06 23:30 47.86040 -65.10985 38838 ft 561 kts 36°
2026-05-06 23:31 47.92306 -65.04054 38832 ft 562 kts 36°
2026-05-06 23:31 47.98578 -64.97094 38836 ft 562 kts 36°
2026-05-06 23:32 48.04806 -64.90163 38834 ft 562 kts 36°
2026-05-06 23:32 48.11068 -64.83171 38836 ft 562 kts 36°
2026-05-06 23:33 48.17179 -64.76326 38842 ft 562 kts 37°
2026-05-06 23:33 48.23311 -64.69437 38845 ft 562 kts 37°
2026-05-06 23:34 48.29563 -64.62392 38846 ft 562 kts 37°
2026-05-06 23:34 48.35810 -64.55331 38850 ft 562 kts 37°
2026-05-06 23:35 48.42055 -64.48249 38856 ft 562 kts 37°
2026-05-06 23:35 48.48299 -64.41147 38853 ft 562 kts 37°
2026-05-06 23:36 48.54533 -64.34031 38853 ft 562 kts 37°
2026-05-06 23:36 48.60773 -64.26888 38845 ft 562 kts 37°
2026-05-06 23:37 48.67004 -64.19732 38847 ft 563 kts 37°
2026-05-06 23:37 48.73233 -64.12556 38846 ft 563 kts 37°
2026-05-06 23:38 48.79462 -64.05357 38853 ft 563 kts 37°
2026-05-06 23:38 48.85683 -63.98143 38853 ft 563 kts 37°
2026-05-06 23:39 48.91860 -63.90957 38856 ft 563 kts 37°
2026-05-06 23:39 48.98067 -63.83714 38856 ft 562 kts 37°
2026-05-06 23:40 49.04270 -63.76451 38860 ft 562 kts 37°
2026-05-06 23:40 49.10465 -63.69176 38861 ft 562 kts 37°
2026-05-06 23:41 49.16648 -63.61891 38864 ft 561 kts 37°
2026-05-06 23:41 49.22826 -63.54587 38867 ft 561 kts 37°
2026-05-06 23:42 49.28992 -63.47274 38869 ft 561 kts 37°
2026-05-06 23:42 49.35157 -63.39938 38870 ft 561 kts 37°
2026-05-06 23:43 49.41159 -63.32774 38877 ft 560 kts 37°
2026-05-06 23:43 49.47310 -63.25408 38882 ft 560 kts 37°
2026-05-06 23:44 49.53445 -63.18038 38869 ft 559 kts 37°
2026-05-06 23:44 49.59572 -63.10653 38868 ft 559 kts 37°
2026-05-06 23:45 49.65647 -63.03308 38878 ft 559 kts 37°
2026-05-06 23:45 49.71754 -62.95896 38879 ft 558 kts 37°
2026-05-06 23:46 49.77860 -62.88462 38863 ft 558 kts 37°
2026-05-06 23:46 49.83950 -62.81023 38874 ft 558 kts 37°
2026-05-06 23:47 49.90034 -62.73570 38866 ft 557 kts 37°
2026-05-06 23:47 49.96113 -62.66099 38870 ft 557 kts 37°
2026-05-06 23:48 50.02158 -62.58643 38868 ft 557 kts 37°
2026-05-06 23:48 50.08225 -62.51136 38874 ft 557 kts 37°
2026-05-06 23:49 50.14280 -62.43618 38883 ft 557 kts 37°
2026-05-06 23:49 50.20325 -62.36083 38877 ft 556 kts 37°
2026-05-06 23:50 50.26367 -62.28527 38888 ft 556 kts 37°
2026-05-06 23:50 50.35408 -62.17179 38890 ft 555 kts 37°
2026-05-06 23:51 50.41388 -62.09640 38894 ft 555 kts 38°
2026-05-06 23:51 50.47393 -62.02043 38892 ft 554 kts 38°
2026-05-06 23:52 50.53385 -61.94438 38890 ft 554 kts 38°
2026-05-06 23:52 50.59371 -61.86815 38895 ft 553 kts 38°
2026-05-06 23:53 50.65349 -61.79178 38895 ft 553 kts 38°
2026-05-06 23:53 50.71320 -61.71524 38893 ft 553 kts 38°
2026-05-06 23:54 50.77287 -61.63849 38897 ft 553 kts 38°
2026-05-06 23:54 50.83112 -61.56330 38898 ft 553 kts 38°
2026-05-06 23:55 50.89066 -61.48623 38893 ft 552 kts 38°